Hauptseite
METAR-TAF:

METAR-TAF

Flughäfen :

Hohenfels, Deutschland

Breite: 49-13N, Länge: 011-50E, Höhe: 442 m

Beobachtung

Neuester Wetterbericht von vor 20 Minuten, um 01:56 UTC
Windstille
Temperatur -3°C
Luftfeuchtigkeit 100%
Luftdruck 1035 hPa
Sichtweite 10 km oder mehr
Himmel klar

METAR: ETIH 210156Z AUTO 00000KT 9999 CLR M03/M03 A3056 RMK AO2 SLP371 T10291030 $

Zeit: 03:16 (02:16 UTC)


TAF: fehlend

Wetterbeobachtungen und Prognosen von mehr als 4000 Flughäfen (METAR und TAF Bericht).

Die verfügbaren Stationen werden durch gelbe und rote Markierungen auf der Karte dargestellt.

Führen Sie die Maus auf sie, um den Namen der Station zu sehen.

Darauf klicken, um die Beobachtung von Wetterbeobachtungen und Prognosen zu sehen.

Um die Karte zu ändern : klicken Sie auf den grünen Tasten mit einem schwarzen Kreuz Zum Vergrößern, auf den grünen Button mit einem Gedankenstrich zu verkleinern, oder auf die grünen Pfeile für benachbarte Karten.


METAR-TAF: